TimeCST,TemperatureF,Dew PointF,Humidity,Sea Level PressureIn,VisibilityMPH,Wind Direction,Wind SpeedMPH,Gust SpeedMPH,PrecipitationIn,Events,Conditions,WindDirDegrees,DateUTC
12:53 AM,36.0,26.1,67,30.30,10.0,SSW,5.8,-,N/A,,Clear,200,2013-01-05 06:53:00
1:53 AM,37.0,26.1,65,30.30,10.0,SSW,6.9,-,N/A,,Overcast,200,2013-01-05 07:53:00
2:53 AM,37.9,26.1,62,30.30,10.0,South,6.9,-,N/A,,Overcast,180,2013-01-05 08:53:00
3:53 AM,37.9,28.0,68,30.28,10.0,South,5.8,-,N/A,,Overcast,180,2013-01-05 09:53:00
4:53 AM,37.9,28.9,70,30.27,10.0,South,4.6,-,N/A,,Overcast,170,2013-01-05 10:53:00
5:53 AM,37.9,30.0,73,30.27,10.0,SSE,6.9,-,N/A,,Overcast,150,2013-01-05 11:53:00
7:53 AM,37.9,32.0,79,30.27,10.0,South,5.8,-,N/A,,Overcast,180,2013-01-05 13:53:00
8:53 AM,39.0,33.1,79,30.26,10.0,SSE,8.1,-,N/A,,Overcast,160,2013-01-05 14:53:00
9:53 AM,42.1,33.1,70,30.26,10.0,South,9.2,-,N/A,,Overcast,180,2013-01-05 15:53:00
10:53 AM,44.1,34.0,68,30.25,10.0,SW,10.4,-,N/A,,Overcast,230,2013-01-05 16:53:00
11:37 AM,42.8,33.8,70,30.24,10.0,SW,10.4,16.1,N/A,,Overcast,220,2013-01-05 17:37:00
11:53 AM,44.1,32.0,63,30.24,10.0,SSW,11.5,17.3,N/A,,Overcast,210,2013-01-05 17:53:00
12:53 PM,45.0,30.0,56,30.20,10.0,SW,10.4,17.3,N/A,,Overcast,230,2013-01-05 18:53:00
1:53 PM,48.0,30.0,50,30.17,10.0,WSW,11.5,18.4,N/A,,Mostly Cloudy,240,2013-01-05 19:53:00
2:53 PM,46.9,30.0,52,30.17,10.0,SW,11.5,-,N/A,,Partly Cloudy,220,2013-01-05 20:53:00
4:53 PM,45.0,28.9,53,30.20,10.0,SW,6.9,-,N/A,,Clear,220,2013-01-05 22:53:00
5:53 PM,35.1,28.0,76,30.22,10.0,Calm,Calm,-,N/A,,Clear,0,2013-01-05 23:53:00
6:53 PM,28.9,25.0,85,30.23,10.0,Calm,Calm,-,N/A,,Clear,0,2013-01-06 00:53:00
7:53 PM,27.0,24.1,89,30.23,10.0,Calm,Calm,-,N/A,,Clear,0,2013-01-06 01:53:00
8:53 PM,25.0,21.9,88,30.25,10.0,Calm,Calm,-,N/A,,Clear,0,2013-01-06 02:53:00
9:53 PM,30.9,26.1,82,30.27,10.0,Calm,Calm,-,N/A,,Clear,0,2013-01-06 03:53:00
10:53 PM,30.0,25.0,82,30.28,10.0,Calm,Calm,-,N/A,,Clear,0,2013-01-06 04:53:00
11:53 PM,32.0,23.0,69,30.30,10.0,Calm,Calm,-,N/A,,Clear,0,2013-01-06 05:53:00